Location: NJAA Observatory
(40.6819°N, 74.8979°W)
Time: 02:44:50
(UTC-04:00)

Cosmos 1328 Rocket - Visible Passes

Search period start: 02 September 2014 00:00
Search period end: 12 September 2014 00:00
Orbit: 604 x 628 km, 82.5° (Epoch: 01 September)

Date Brightness Start Highest point End Pass type
(mag) Time Alt. Az. Time Alt. Az. Time Alt. Az.
02 Sep 6.6 23:32:13 12° N 23:32:13 12° N 23:32:34 10° N visible
03 Sep 6.7 23:48:30 11° NNW 23:48:30 11° NNW 23:48:43 10° NNW visible
05 Sep 6.3 22:43:57 13° N 22:43:57 13° N 22:44:23 10° N visible
06 Sep 6.4 23:00:11 14° N 23:00:11 14° N 23:00:49 10° N visible
07 Sep 6.5 23:16:24 13° NNW 23:16:24 13° NNW 23:16:58 10° NNW visible
08 Sep 6.1 21:55:31 12° NNE 21:55:31 12° NNE 21:55:54 10° NNE visible
08 Sep 6.8 23:32:35 10° NNW 23:32:35 10° NNW 23:32:42 10° NNW visible
09 Sep 5.9 22:11:41 16° NNE 22:11:41 16° NNE 22:12:36 10° N visible
10 Sep 6.0 22:27:49 18° N 22:27:49 18° N 22:29:03 10° N visible
11 Sep 5.9 21:06:50 11° NE 21:06:50 11° NE 21:07:01 10° NE visible
11 Sep 6.2 22:43:54 17° NNW 22:43:54 17° NNW 22:45:13 10° NNW visible
